Zurück zum Katalog

CZ-6A DEB

AktivSSO
NORAD 54989·DEBRIS·🇨🇳 China

Gestartet Nov 11, 2022 von Taiyuan Satellite Launch Center

Loading…

Nächste Überflüge (nächste 24 Stunden)

TLE

AktuellSource: Space-Track

Epoche: Sep 14, 2026, 00:14 UTC

1 54989U 22151UE  26257.01037033  .00000732  00000-0  32701-3 0  9993
2 54989  98.7544 276.9752 0068833  85.2781 275.6255 14.24458358197981

Verfolge CZ-6A DEB in Echtzeit mit AllMySat

Download on the App Store